Content
SEND FEEDBACK

Daily
Averages
Monthly
Summary
Philippines

OLONGAPO, PHILIPPINES


Home > Asia > Philippines
Elevation: 55 feet     Latitude: 14 48N     Longitude: 120 16E

WEATHER
 
SELECT A DAY
Number of Records: 138,504;   Date Range: 7/31/96 - 9/30/14
 
SHARE

PRINT THIS DATA

[ ← Previous Day ]
WEATHER ALMANAC - OCTOBER 25, 2013
[ Next Day → ]
[ °C ]   °F
Weather ElementAverageHighLow
Temperature81.4 °F86 °F (12:00 pm)73.4 °F (5:00 am)
Dewpoint70.5 °F73.4 °F (5:00 pm)66.2 °F (6:00 am)
Humidity68.2 %83 % (5:00 am)54 % (11:00 am)
Barometer29.79 in29.84 in (11:00 pm)29.74 in (2:00 am)
Wind Speed5.9 mph11.5 mph (1:00 pm)
Weather ElementAverage
Visibility6.8 mi
Wind DirectionSSE (165 °)

Weather ElementTotal
Precipitation---
Cooling Degree Days14.7 (Base 65)
Growing Degree Days29.7 (Base 50)
Averaged from 26 records on October 25, 2013
WEATHER CONDITIONS BREAKOUT
WIND DIRECTION BREAKOUT
WEATHER BY HOUR - OCTOBER 25, 2013
[ °C ]   °F
Local TimeTemperatureDewpointHumidityBarometerVisibilityWind DirectionWind SpeedGust SpeedPrecipitationEventsConditions
2:00 AM77.0 °F69.8 °F78 %29.74 in6.2 miENE (70°)4.6 mphMostly Cloudy
5:00 AM74.0 °F67.0 °F74 %29.77 in7.0 miEast (80°)4.5 mphHaze
5:00 AM73.4 °F68.0 °F83 %29.77 in6.2 miEast (80°)4.6 mphScattered Clouds
6:00 AM73.4 °F66.2 °F78 %29.77 in6.2 miENE (70°)4.6 mphMostly Cloudy
7:00 AM75.2 °F68.0 °F78 %29.80 in5.0 miVariable2.3 mphMostly Cloudy
8:00 AM77.0 °F68.0 °F74 %29.80 in6.2 miVariable3.5 mphMostly Cloudy
9:00 AM80.6 °F68.0 °F65 %29.80 in6.2 miVariable2.3 mphMostly Cloudy
10:00 AM82.4 °F71.6 °F70 %29.80 in6.2 miVariable3.5 mphScattered Clouds
11:00 AM85.0 °F71.0 °F54 %29.79 in11.0 miWSW (240°)4.5 mphHaze
11:00 AM84.2 °F71.6 °F66 %29.77 in6.2 miWSW (240°)4.6 mphScattered Clouds
12:00 PM86.0 °F71.6 °F62 %29.77 in6.2 miSW (220°)9.2 mphScattered Clouds
1:00 PM86.0 °F71.6 °F62 %29.77 in6.2 miSW (220°)11.5 mphPartly Cloudy
2:00 PM86.0 °F71.6 °F62 %29.74 in6.2 miSW (220°)10.4 mphScattered Clouds
2:00 PM86.0 °F72.0 °F54 %29.75 in11.0 miSW (220°)8.9 mphHaze
3:00 PM86.0 °F71.6 °F62 %29.74 in6.2 miSSW (210°)8.1 mphScattered Clouds
4:00 PM86.0 °F69.8 °F58 %29.74 in6.2 miSouth (190°)6.9 mphMostly Cloudy
5:00 PM84.0 °F73.0 °F62 %29.77 in6.0 miNW (320°)4.5 mphRainLight Rain Showers
5:00 PM84.2 °F73.4 °F70 %29.77 in6.2 miNW (320°)4.6 mphRainLight Rain Showers
6:00 PM82.4 °F71.6 °F70 %29.77 in6.2 miNNW (340°)10.4 mphMostly Cloudy
7:00 PM82.4 °F71.6 °F70 %29.80 in6.2 miNNW (340°)9.2 mphMostly Cloudy
8:00 PM82.0 °F72.0 °F64 %29.83 in9.0 miNorth (350°)6.7 mphHaze
8:00 PM82.4 °F71.6 °F70 %29.83 in6.2 miNorth (350°)6.9 mphScattered Clouds
9:00 PM80.6 °F71.6 °F74 %29.83 in6.2 miNNE (30°)4.6 mphMostly Cloudy
10:00 PM80.6 °F71.6 °F74 %29.83 in6.2 miNE (40°)4.6 mphMostly Cloudy
11:00 PM80.0 °F70.0 °F64 %29.84 in9.0 miENE (70°)4.5 mphHaze
11:00 PM78.8 °F69.8 °F74 %29.83 in6.2 miENE (70°)4.6 mphMostly Cloudy
Hourly data recorded from RPLB, located miles away from Olongapo, Philippines







STORIES FROM OUR PARTNERS